Weather in St Peter Port

United Kingdom     49°27′23″N   2°32′07″W
temp.,
°C
wind,
m/s
gust,
m/s
humid.,
%
clouds,
%
prec.,
mm/h
press.,
hPa
HPBL,
m
28 july, wed
wed2801:00+16wsw1012880 0.0 1011499
04:00+16wsw912870 0.0 1011585
07:00+16wsw81188100 0.2 1011619
10:00+16wsw111486100 0.7 1011600
13:00+16wsw11158099 1.2 1012640
16:00+16wsw12158099 0.1 1012701
19:00+16wsw1114814 0.1 1012747
22:00+16w1013805 0.1 1013741
29 july, thu
thu2901:00+16w912805 0.1 1014764
04:00+16wsw911828 0.1 1013743
07:00+16wsw8983100 0.3 1013577
10:00+16wsw8985100 0.2 1014516
13:00+16sw788696 0.5 1014460
16:00+16wsw46835 0.0 1013261
19:00+16sw338035 0.0 1011123
22:00+16sse4680100 0.4 1009231
30 july, fri
fri3001:00+17ssw141987100 1.0 1006899
04:00+15wsw1520820 0.2 10061412
07:00+16wsw1519800 0.4 10061483
10:00+16w1215819 0.3 10081103
13:00+16w1114855 0.6 1010791
16:00+16w1012875 0.0 1011463
19:00+16w912885 0.0 1012343
22:00+16w912885 0.0 1013375
31 july, sat
sat3101:00+16w8108893 0.0 1013439
04:00+16w7987100 0.1 1012476
07:00+16w81084100 0.5 1012673
10:00+15sw81089100 1.1 1012707
13:00+15sw101390100 1.9 1012742
16:00+16wsw10129056 0.1 1011532
19:00+16wsw10139113 0.1 1011400
22:00+16wsw9129280 0.5 1011292
1 august, sun
sun101:00+16wnw67906 1.1 1011181
04:00+16nw44875 0.0 1011114
07:00+16wnw34876 0.0 1011115
10:00+16w34855 0.1 1012129
13:00+17wnw45865 0.6 1013178
16:00+16nne44790 0.0 1013297
19:00+16nw45770 0.0 1014276
22:00+16w44811 0.0 1015101